TimePST,TemperatureF,Dew PointF,Humidity,Sea Level PressureIn,VisibilityMPH,Wind Direction,Wind SpeedMPH,Gust SpeedMPH,PrecipitationIn,Events,Conditions,WindDirDegrees,DateUTC
12:52 AM,50.0,17.1,27,30.06,10.0,NW,3.5,-,N/A,,Clear,320,2014-01-26 08:52:00
1:52 AM,53.1,18.0,25,30.06,10.0,West,5.8,-,N/A,,Clear,260,2014-01-26 09:52:00
2:52 AM,48.0,19.9,33,30.06,10.0,NE,8.1,-,N/A,,Clear,50,2014-01-26 10:52:00
3:52 AM,48.9,19.0,31,30.04,10.0,NNE,4.6,-,N/A,,Clear,20,2014-01-26 11:52:00
4:52 AM,46.9,19.0,33,30.05,10.0,North,3.5,-,N/A,,Clear,360,2014-01-26 12:52:00
5:52 AM,46.9,19.0,33,30.06,10.0,NNW,3.5,-,N/A,,Clear,340,2014-01-26 13:52:00
6:52 AM,46.9,19.9,34,30.08,10.0,WSW,3.5,-,N/A,,Clear,240,2014-01-26 14:52:00
7:52 AM,50.0,21.9,33,30.09,10.0,East,4.6,-,N/A,,Clear,90,2014-01-26 15:52:00
8:52 AM,54.0,25.0,33,30.10,10.0,Calm,Calm,-,N/A,,Clear,0,2014-01-26 16:52:00
9:52 AM,61.0,21.0,21,30.10,10.0,SSW,3.5,-,N/A,,Clear,200,2014-01-26 17:52:00
10:52 AM,64.9,21.0,19,30.09,10.0,South,5.8,-,N/A,,Clear,190,2014-01-26 18:52:00
11:52 AM,68.0,24.1,19,30.04,10.0,SSW,4.6,-,N/A,,Clear,200,2014-01-26 19:52:00
12:52 PM,71.1,24.1,17,30.00,10.0,SE,3.5,-,N/A,,Clear,140,2014-01-26 20:52:00
1:52 PM,73.0,21.9,15,29.98,10.0,Calm,Calm,-,N/A,,Clear,0,2014-01-26 21:52:00
2:52 PM,73.0,19.9,14,29.95,10.0,Calm,Calm,-,N/A,,Clear,0,2014-01-26 22:52:00
3:52 PM,72.0,26.1,18,29.95,10.0,South,5.8,-,N/A,,Clear,170,2014-01-26 23:52:00
4:52 PM,71.1,27.0,19,29.94,10.0,Calm,Calm,-,N/A,,Clear,0,2014-01-27 00:52:00
5:52 PM,66.9,27.0,22,29.93,10.0,ESE,3.5,-,N/A,,Clear,110,2014-01-27 01:52:00
6:52 PM,64.0,26.1,24,29.96,10.0,West,3.5,-,N/A,,Clear,260,2014-01-27 02:52:00
7:52 PM,64.0,25.0,23,29.95,10.0,Calm,Calm,-,N/A,,Clear,0,2014-01-27 03:52:00
8:52 PM,61.0,25.0,25,29.96,10.0,North,3.5,-,N/A,,Clear,360,2014-01-27 04:52:00
9:52 PM,61.0,25.0,25,29.96,10.0,North,5.8,-,N/A,,Clear,360,2014-01-27 05:52:00
10:52 PM,63.0,24.1,23,29.95,10.0,North,6.9,-,N/A,,Overcast,360,2014-01-27 06:52:00
11:52 PM,62.1,42.1,48,29.96,10.0,NNW,5.8,-,0.00,Rain,Light Rain,340,2014-01-27 07:52:00